CZ-3B DEB, 40184

Orbit data source: Space-Track

CZ-3B DEB, 40184 is space debris in HEO originally from a launch on Mon, 19 Dec 2011 UTC launched from the Xichang Space Center, China (XSC). Debris objects in space refer to the collection of defunct objects orbiting the Earth. Examples of debris include non-operational satellites, rocket bodies, and fragments generated from explosions, collisions, or faulty payload assembly.

Loading next visibility...
Identifier
40184, 2011-077H
Orbit
HEO
Country
Flag of CNCN / PRC
Related business
Manufacturer
CALT
Mission
Spacecraft
Bus & Motor
Unknown
Mass
Unknown
Launch date (UTC)
2011-12-19 (14 years ago)
Launch vehicle
Unknown
Launch site
Xichang Space Center, China (XSC)
Object type
Payload
Rocket body
Debris
Shape & HBR
Unknown shape, 0.4 m
Radar Cross Section
Medium (>0.1 m² and <1 m²)

Expand to show TLE details & history
Last TLE update: 13 hours ago

TLE from 13 hours ago
0 CZ-3B DEB
1 40184U 11077H   26125.56726278  .00003773  00000-0  38412-2 0  9992
2 40184  21.2927 211.0651 7548264  60.2289 353.3422  1.92795532 79169
Epoch: 2026-05-05T13:36Z
TLE epoch observation values (Epoch: 2026-05-05T13:36:51.504Z)
Latitude
Longitude
143.5888°
Altitude
2,133.568 km
Speed
8.89 km/s
True Right ascension
14h 04m 58s
True Declination
0° 00' 00"
Sunlit
Object was in full shadow at epoch
Visualization orbit readout
Latitude
Unknown
Longitude
Unknown
Altitude
Unknown
Speed
Unknown
Apparent Right ascension
Unknown
Apparent Declination
Unknown
Sunlit
N/A
Visualization observer readout
Local Sidereal Time
10:28:27
Azimuth
Unknown
Elevation
Unknown
Doppler factor
Unknown
Orbital elements
Apogee altitude
41,482.456 km
Perigee altitude
308.652 km
Semi-major axis
27,273.691 km
Eccentricity
0.75483
Inclination
21.2927°
RAAN
211.0651°
Arg. of periapsis
60.2289°
True anomaly
299.08126°
Mean anomaly
353.3422°
Eccentric anomaly
335.20503°
Mean motion
0.48187 °/min
Orbital period
747.09 mins
BSTAR
0.0038412
Loading maneuver chart data...
Computing Atmospheric mass density...
Loading historical data...
Loading historical data...
Loading historical data...
Loading historical data...
Loading historical data...
Loading historical data...
Loading historical data...

Documentation

Showing up to 5 results
|